STARLINK-30113, 56291

Orbit data source: Space-Track

STARLINK-30113, 56291 is a payload satellite owned by SpaceX/Seattle (US) in LEO that was launched on Wed, 19 Apr 2023 UTC via an FALCON 9 launch vehicle from the Air Force Eastern Test Range (AFETR). Payload-class satellites include a variety of spacecraft equipped with specific instruments for various scientific and technological missions. These include communications satellites like Starlink; space stations such as the ISS; scientific satellites like the Hubble; Earth observation satellites from companies like Planet Labs, Umbra, and HawkEye 360; GPS; miniature CubeSats for education and research; and military/defense satellites.

Loading next visibility...
Identifier
56291, 2023-056F
Orbit
LEO
Country
Flag of USUS
Related business
Manufacturer
SpaceX/Seattle
Mission
Operational Commercial Communications
Bus & Motor
STARLINK V2M, Unknown motor
Mass
730 kg wet, ~700 kg dry
Launch date (UTC)
2023-04-19 (3 years ago)
Launch vehicle
FALCON 9
Launch site
Air Force Eastern Test Range (AFETR)
Object type
Payload
Rocket body
Debris
Shape & HBR
Box + 2 Pan, 17.7 m
Radar Cross Section
33.884 m², Large (>1 m²)

Expand to show TLE details & history
Last TLE update: 3 days ago

TLE from 3 days ago
0 STARLINK-30113
1 56291U 23056F   26170.51459376  .00000954  00000-0  44181-4 0  9995
2 56291  43.0041 353.7932 0001714 272.7224  87.3432 15.27580219175615
Epoch: 2026-06-19T12:21Z
TLE epoch observation values (Epoch: 2026-06-19T12:21:00.900Z)
Latitude
-0°
Longitude
-99.20302°
Altitude
482.77 km
Speed
7.626 km/s
True Right ascension
23h 35m 10s
True Declination
0° 00' 00"
Sunlit
Object was in daylight at epoch
Visualization orbit readout
Latitude
Unknown
Longitude
Unknown
Altitude
Unknown
Speed
Unknown
Apparent Right ascension
Unknown
Apparent Declination
Unknown
Sunlit
N/A
Visualization observer readout
Local Sidereal Time
21:39:42
Azimuth
Unknown
Elevation
Unknown
Doppler factor
Unknown
Orbital elements
Apogee altitude
486.169 km
Perigee altitude
483.817 km
Semi-major axis
6,863.13 km
Eccentricity
0.00017
Inclination
43.0041°
RAAN
353.7932°
Arg. of periapsis
272.7224°
True anomaly
87.36282°
Mean anomaly
87.3432°
Eccentric anomaly
87.35301°
Mean motion
3.81733 °/min
Orbital period
94.31 mins
BSTAR
0.000044181
Loading maneuver chart data...
Computing Atmospheric mass density...
Loading historical data...
Loading historical data...
Loading historical data...
Loading historical data...
Loading historical data...
Loading historical data...
Loading historical data...

Documentation

Showing up to 5 results
|